This demonstration page uses our WeatherBlox Daily Observations layout. Learn more.

Left ArrowRight Arrow

39.12711, -84.51439

Hourly Observations for January 21, 2022

Temp ( °F °C ) Dew Point ( °F °C ) Humidity (%) Winds ( mph kmh ) Pressure ( in mb ) Visibility ( mi km ) Precip ( " mm )
12:53 am 00:53 Cloudy 21 -6.1 7 -13.9 54 54 NE 10 17 30.54 1034 10 16 0.00 0.00
1:53 am 01:53 Cloudy 21 -6.1 7 -13.9 54 54 NNE 10 17 30.53 1034 10 16 0.00 0.00
2:53 am 02:53 Cloudy 21 -6.1 7 -13.9 54 54 ENE 7 11 30.53 1034 10 16 0.00 0.00
3:53 am 03:53 Cloudy 21 -6.1 7 -13.9 54 54 NNE 9 15 30.53 1034 10 16 0.00 0.00
4:53 am 04:53 Cloudy 21 -6.1 8 -13.3 57 57 NE 10 17 30.53 1034 10 16 0.00 0.00
5:53 am 05:53 Mostly Cloudy 20 -6.7 9 -12.8 62 62 NE 13 20 30.54 1034 10 16 0.00 0.00
6:53 am 06:53 Cloudy 19 -7.2 11 -11.7 71 71 NE 8 13 30.57 1035 10 16 0.00 0.00
7:53 am 07:53 Cloudy 19 -7.2 11 -11.7 71 71 ENE 9 15 30.58 1036 10 16 0.00 0.00
8:53 am 08:53 Cloudy 19 -7.2 11 -11.7 71 71 NE 10 17 30.60 1036 10 16 0.00 0.00
9:53 am 09:53 Sunny 20 -6.7 11 -11.7 68 68 NE 13 20 30.60 1036 10 16 0.00 0.00
10:53 am 10:53 Mostly Cloudy 23 -5 7 -13.9 50 50 ENE 13 20 30.60 1036 10 16 0.00 0.00
11:53 am 11:53 Cloudy 24 -4.4 8 -13.3 50 50 E 14 22 30.59 1036 10 16 0.00 0.00
12:53 pm 12:53 Mostly Cloudy 26 -3.3 7 -13.9 44 44 NE 12 19 30.56 1035 10 16 0.00 0.00
1:53 pm 13:53 Sunny 25 -3.9 6 -14.4 44 44 NE 9 15 30.54 1034 10 16 0.00 0.00
2:53 pm 14:53 Sunny 26 -3.3 7 -13.9 44 44 NE 9 15 30.53 1034 10 16 0.00 0.00
3:53 pm 15:53 Sunny 25 -3.9 7 -13.9 46 46 ENE 9 15 30.53 1034 10 16 0.00 0.00
4:53 pm 16:53 Sunny 24 -4.4 7 -13.9 48 48 NNE 10 17 30.53 1034 10 16 0.00 0.00
5:53 pm 17:53 Clear 21 -6.1 8 -13.3 57 57 ENE 8 13 30.54 1034 10 16 0.00 0.00
6:53 pm 18:53 Clear 20 -6.7 8 -13.3 60 60 Calm 30.55 1035 10 16 0.00 0.00
7:53 pm 19:53 Clear 17 -8.3 11 -11.7 77 77 Calm 30.55 1035 10 16 0.00 0.00
8:53 pm 20:53 Clear 16 -8.9 10 -12.2 77 77 Calm 30.55 1035 10 16 0.00 0.00
9:53 pm 21:53 Clear 15 -9.4 9 -12.8 77 77 Calm 30.54 1034 10 16 0.00 0.00
10:53 pm 22:53 Clear 13 -10.6 10 -12.2 88 88 Calm 30.53 1034 10 16 0.00 0.00
11:53 pm 23:53 Clear 11 -11.7 8 -13.3 88 88 Calm 30.52 1034 10 16 0.00 0.00

Powered by AerisWeather